Time,TemperatureF,DewpointF,PressureIn,WindDirection,WindDirectionDegrees,WindSpeedMPH,WindSpeedGustMPH,Humidity,HourlyPrecipIn,Conditions,Clouds,dailyrainin,SoftwareType,DateUTC
2013-02-27 00:00:00,32.4,31.8,28.69,ESE,112,0.0,2.0,98,0.00,,,0.00,meteohub,2013-02-27 06:00:00,
2013-02-27 00:05:00,32.4,31.8,28.69,ESE,112,0.0,2.0,98,0.00,,,0.00,meteohub,2013-02-27 06:05:00,
2013-02-27 00:10:00,32.4,31.8,28.69,SE,135,0.0,0.0,98,0.00,,,0.00,meteohub,2013-02-27 06:10:00,
2013-02-27 00:15:00,32.4,31.8,28.69,East,90,0.0,0.0,98,0.00,,,0.00,meteohub,2013-02-27 06:15:00,
2013-02-27 00:20:00,32.4,31.8,28.69,East,90,0.0,0.0,98,0.00,,,0.00,meteohub,2013-02-27 06:20:00,
2013-02-27 00:25:00,32.4,31.8,28.69,ESE,112,0.0,2.0,98,0.00,,,0.00,meteohub,2013-02-27 06:25:00,
2013-02-27 00:30:00,32.4,31.8,28.69,ESE,112,0.0,2.0,98,0.00,,,0.00,meteohub,2013-02-27 06:30:00,
2013-02-27 00:35:00,32.4,31.8,28.69,East,90,0.0,2.0,98,0.00,,,0.00,meteohub,2013-02-27 06:35:00,
2013-02-27 00:40:00,32.4,31.8,28.69,ESE,112,0.0,0.0,98,0.00,,,0.00,meteohub,2013-02-27 06:40:00,
2013-02-27 00:45:00,32.4,31.8,28.69,ESE,112,0.0,0.0,98,0.00,,,0.00,meteohub,2013-02-27 06:45:00,
2013-02-27 00:50:00,32.4,31.8,28.69,ESE,112,0.0,0.0,98,0.00,,,0.00,meteohub,2013-02-27 06:50:00,
2013-02-27 00:55:00,32.4,31.8,28.69,ENE,68,0.0,0.0,98,0.00,,,0.00,meteohub,2013-02-27 06:55:00,
2013-02-27 01:00:00,32.4,31.8,28.69,SSE,158,0.0,0.0,98,0.00,,,0.00,meteohub,2013-02-27 07:00:00,
2013-02-27 01:05:00,32.4,31.8,28.69,East,90,0.0,0.0,98,0.00,,,0.00,meteohub,2013-02-27 07:05:00,
2013-02-27 01:10:00,32.4,31.8,28.69,ESE,112,0.0,0.0,98,0.00,,,0.00,meteohub,2013-02-27 07:10:00,
2013-02-27 01:15:00,32.4,31.8,28.69,ESE,112,0.0,0.0,98,0.00,,,0.00,meteohub,2013-02-27 07:15:00,
2013-02-27 01:20:00,32.4,31.8,28.69,ESE,112,0.0,0.0,98,0.00,,,0.00,meteohub,2013-02-27 07:20:00,
2013-02-27 01:25:00,32.4,31.8,28.71,ESE,112,0.0,0.0,98,0.00,,,0.00,meteohub,2013-02-27 07:25:00,
2013-02-27 01:30:00,32.5,32.0,28.71,ESE,112,0.0,0.0,98,0.00,,,0.00,meteohub,2013-02-27 07:30:00,
2013-02-27 01:35:00,32.5,32.0,28.71,ESE,112,0.0,0.0,98,0.00,,,0.00,meteohub,2013-02-27 07:35:00,
2013-02-27 01:40:00,32.5,32.0,28.69,ESE,112,0.0,0.0,98,0.00,,,0.00,meteohub,2013-02-27 07:40:00,
2013-02-27 01:45:00,32.4,31.8,28.69,ESE,112,0.0,0.0,98,0.00,,,0.00,meteohub,2013-02-27 07:45:00,
2013-02-27 01:50:00,32.4,31.8,28.69,ENE,68,0.0,0.0,98,0.00,,,0.00,meteohub,2013-02-27 07:50:00,
2013-02-27 01:55:00,32.4,31.8,28.71,East,90,0.0,0.0,98,0.00,,,0.00,meteohub,2013-02-27 07:55:00,
2013-02-27 02:00:00,32.4,31.8,28.71,ESE,112,0.0,0.0,98,0.00,,,0.00,meteohub,2013-02-27 08:00:00,
2013-02-27 02:05:00,32.4,31.8,28.71,ESE,112,0.0,0.0,98,0.00,,,0.00,meteohub,2013-02-27 08:05:00,
2013-02-27 02:11:00,32.4,31.8,28.69,ESE,112,0.0,0.0,98,0.00,,,0.00,meteohub,2013-02-27 08:11:00,
2013-02-27 02:16:00,32.4,31.8,28.69,East,90,0.0,0.0,98,0.00,,,0.00,meteohub,2013-02-27 08:16:00,
2013-02-27 02:21:00,32.4,31.8,28.69,East,90,0.0,0.0,98,0.00,,,0.00,meteohub,2013-02-27 08:21:00,
2013-02-27 02:26:00,32.4,31.8,28.69,ENE,68,0.0,0.0,98,0.00,,,0.00,meteohub,2013-02-27 08:26:00,
2013-02-27 02:31:00,32.4,31.8,28.69,East,90,0.0,0.0,98,0.00,,,0.00,meteohub,2013-02-27 08:31:00,
2013-02-27 02:36:00,32.4,31.8,28.69,NE,45,0.0,0.0,98,0.00,,,0.00,meteohub,2013-02-27 08:36:00,
2013-02-27 02:41:00,32.4,31.8,28.69,East,90,0.0,0.0,98,0.00,,,0.00,meteohub,2013-02-27 08:41:00,
2013-02-27 02:46:00,32.4,31.8,28.69,ENE,68,0.0,0.0,98,0.00,,,0.00,meteohub,2013-02-27 08:46:00,
2013-02-27 02:51:00,32.4,31.8,28.69,ENE,68,0.0,0.0,98,0.00,,,0.00,meteohub,2013-02-27 08:51:00,
2013-02-27 02:56:00,32.4,31.8,28.69,ENE,68,0.0,0.0,98,0.00,,,0.00,meteohub,2013-02-27 08:56:00,
2013-02-27 03:01:00,32.4,31.8,28.69,ENE,68,0.0,0.0,98,0.00,,,0.00,meteohub,2013-02-27 09:01:00,
2013-02-27 03:06:00,32.4,31.8,28.69,ENE,68,0.0,0.0,98,0.00,,,0.00,meteohub,2013-02-27 09:06:00,
2013-02-27 03:11:00,32.4,31.8,28.69,ENE,68,0.0,0.0,98,0.00,,,0.00,meteohub,2013-02-27 09:11:00,
2013-02-27 03:16:00,32.4,31.8,28.69,ENE,68,0.0,0.0,98,0.00,,,0.00,meteohub,2013-02-27 09:16:00,
2013-02-27 03:21:00,32.4,31.8,28.69,ENE,68,0.0,0.0,98,0.00,,,0.00,meteohub,2013-02-27 09:21:00,
2013-02-27 03:26:00,32.4,31.8,28.69,ENE,68,0.0,0.0,98,0.00,,,0.00,meteohub,2013-02-27 09:26:00,
2013-02-27 03:31:00,32.4,31.8,28.69,ENE,68,0.0,0.0,98,0.00,,,0.00,meteohub,2013-02-27 09:31:00,
2013-02-27 03:36:00,32.4,31.8,28.69,ENE,68,0.0,0.0,98,0.00,,,0.00,meteohub,2013-02-27 09:36:00,
2013-02-27 03:41:00,32.4,31.8,28.69,ENE,68,0.0,0.0,98,0.00,,,0.00,meteohub,2013-02-27 09:41:00,
2013-02-27 03:46:00,32.4,31.8,28.69,ENE,68,0.0,0.0,98,0.00,,,0.00,meteohub,2013-02-27 09:46:00,
2013-02-27 03:51:00,32.4,31.8,28.69,NNE,22,0.0,0.0,98,0.00,,,0.00,meteohub,2013-02-27 09:51:00,
2013-02-27 03:56:00,32.2,31.6,28.69,NNE,22,0.0,0.0,98,0.00,,,0.00,meteohub,2013-02-27 09:56:00,
2013-02-27 04:01:00,32.2,31.6,28.69,NNE,22,0.0,0.0,98,0.00,,,0.00,meteohub,2013-02-27 10:01:00,
2013-02-27 04:06:00,32.2,31.6,28.69,ENE,68,0.0,0.0,98,0.00,,,0.00,meteohub,2013-02-27 10:06:00,
2013-02-27 04:11:00,32.2,31.6,28.71,ENE,68,0.0,0.0,98,0.00,,,0.00,meteohub,2013-02-27 10:11:00,
2013-02-27 04:16:00,32.2,31.6,28.71,ENE,68,0.0,0.0,98,0.00,,,0.00,meteohub,2013-02-27 10:16:00,
2013-02-27 04:21:00,32.2,31.6,28.71,NNE,22,0.0,0.0,98,0.00,,,0.00,meteohub,2013-02-27 10:21:00,
2013-02-27 04:26:00,32.2,31.6,28.69,ENE,68,0.0,0.0,98,0.00,,,0.00,meteohub,2013-02-27 10:26:00,
2013-02-27 04:31:00,32.2,31.6,28.69,NNE,22,0.0,0.0,98,0.00,,,0.00,meteohub,2013-02-27 10:31:00,
2013-02-27 04:36:00,32.2,31.6,28.69,NNE,22,0.0,0.0,98,0.00,,,0.00,meteohub,2013-02-27 10:36:00,
2013-02-27 04:41:00,32.2,31.6,28.71,NNW,338,0.0,0.0,98,0.00,,,0.00,meteohub,2013-02-27 10:41:00,
2013-02-27 04:46:00,32.2,31.6,28.71,North,0,0.0,0.0,98,0.00,,,0.00,meteohub,2013-02-27 10:46:00,
2013-02-27 04:51:00,32.2,31.6,28.71,NNE,22,0.0,0.0,98,0.00,,,0.00,meteohub,2013-02-27 10:51:00,
2013-02-27 04:56:00,32.2,31.6,28.71,NNE,22,0.0,0.0,98,0.00,,,0.00,meteohub,2013-02-27 10:56:00,
2013-02-27 05:01:00,32.2,31.6,28.71,WNW,292,0.0,0.0,98,0.00,,,0.00,meteohub,2013-02-27 11:01:00,
2013-02-27 05:06:00,32.2,31.6,28.71,NNE,22,0.0,1.0,98,0.00,,,0.00,meteohub,2013-02-27 11:06:00,
2013-02-27 05:11:00,32.2,31.6,28.71,North,0,0.0,1.0,98,0.00,,,0.00,meteohub,2013-02-27 11:11:00,
2013-02-27 05:17:00,32.2,31.6,28.71,NNE,22,0.0,1.0,98,0.00,,,0.00,meteohub,2013-02-27 11:17:00,
2013-02-27 05:21:00,32.2,31.6,28.71,North,0,0.0,0.0,98,0.00,,,0.00,meteohub,2013-02-27 11:21:00,
2013-02-27 05:27:00,32.2,31.6,28.71,NNE,22,0.0,1.0,98,0.00,,,0.00,meteohub,2013-02-27 11:27:00,
2013-02-27 05:32:00,32.2,31.6,28.71,NNE,22,0.0,1.0,98,0.00,,,0.00,meteohub,2013-02-27 11:32:00,
2013-02-27 05:37:00,32.2,31.6,28.71,NNW,338,0.0,1.0,98,0.00,,,0.00,meteohub,2013-02-27 11:37:00,
2013-02-27 05:42:00,32.0,31.5,28.71,NNW,338,0.0,2.0,98,0.00,,,0.00,meteohub,2013-02-27 11:42:00,
2013-02-27 05:47:00,32.2,31.6,28.71,WNW,292,0.0,2.0,98,0.00,,,0.00,meteohub,2013-02-27 11:47:00,
2013-02-27 05:52:00,32.2,31.6,28.71,NNE,22,0.0,1.0,98,0.00,,,0.00,meteohub,2013-02-27 11:52:00,
2013-02-27 05:57:00,32.2,31.6,28.74,NNE,22,0.0,0.0,98,0.00,,,0.00,meteohub,2013-02-27 11:57:00,
2013-02-27 06:02:00,32.2,31.6,28.74,NNE,22,0.0,1.0,98,0.00,,,0.00,meteohub,2013-02-27 12:02:00,
2013-02-27 06:07:00,32.2,31.6,28.74,ENE,68,0.0,1.0,98,0.00,,,0.00,meteohub,2013-02-27 12:07:00,
2013-02-27 06:12:00,32.2,31.6,28.74,NNE,22,0.0,1.0,98,0.00,,,0.00,meteohub,2013-02-27 12:12:00,
2013-02-27 06:17:00,32.2,31.6,28.74,NNE,22,0.0,0.0,98,0.00,,,0.00,meteohub,2013-02-27 12:17:00,
2013-02-27 06:21:00,32.2,31.6,28.74,North,0,1.0,0.0,98,0.00,,,0.00,meteohub,2013-02-27 12:21:00,
2013-02-27 06:26:00,32.2,31.6,28.74,WNW,292,0.0,3.0,98,0.00,,,0.00,meteohub,2013-02-27 12:26:00,
2013-02-27 06:31:00,32.2,31.6,28.74,NE,45,0.0,3.0,98,0.00,,,0.00,meteohub,2013-02-27 12:31:00,
2013-02-27 06:36:00,32.4,31.8,28.74,ENE,68,0.0,3.0,98,0.00,,,0.00,meteohub,2013-02-27 12:36:00,
2013-02-27 06:41:00,32.4,31.8,28.74,SSW,202,0.0,3.0,98,0.00,,,0.00,meteohub,2013-02-27 12:41:00,
2013-02-27 06:46:00,32.4,31.8,28.74,NNE,22,2.0,4.0,98,0.00,,,0.00,meteohub,2013-02-27 12:46:00,
2013-02-27 06:52:00,32.5,32.0,28.74,NNE,22,0.0,4.0,98,0.00,,,0.00,meteohub,2013-02-27 12:52:00,
2013-02-27 06:57:00,32.5,32.0,28.74,NNE,22,0.0,4.0,98,0.00,,,0.00,meteohub,2013-02-27 12:57:00,
2013-02-27 07:02:00,32.5,32.0,28.74,NNE,22,0.0,3.0,98,0.00,,,0.00,meteohub,2013-02-27 13:02:00,
2013-02-27 07:07:00,32.5,32.0,28.74,NE,45,0.0,1.0,98,0.00,,,0.00,meteohub,2013-02-27 13:07:00,
2013-02-27 07:12:00,32.5,32.0,28.74,NNE,22,1.0,1.0,98,0.00,,,0.00,meteohub,2013-02-27 13:12:00,
2013-02-27 07:17:00,32.7,32.2,28.74,NNE,22,0.0,5.0,98,0.00,,,0.00,meteohub,2013-02-27 13:17:00,
2013-02-27 07:22:00,32.7,32.2,28.74,NE,45,5.0,5.0,98,0.00,,,0.00,meteohub,2013-02-27 13:22:00,
2013-02-27 07:27:00,32.7,32.2,28.74,ENE,68,1.0,5.0,98,0.00,,,0.00,meteohub,2013-02-27 13:27:00,
2013-02-27 07:32:00,32.9,32.4,28.74,NNE,22,4.0,6.0,98,0.00,,,0.00,meteohub,2013-02-27 13:32:00,
2013-02-27 07:37:00,32.9,32.4,28.74,NNE,22,0.0,6.0,98,0.00,,,0.00,meteohub,2013-02-27 13:37:00,
2013-02-27 07:42:00,32.9,32.4,28.74,ENE,68,6.0,6.0,98,0.00,,,0.00,meteohub,2013-02-27 13:42:00,
2013-02-27 07:46:00,33.1,32.5,28.74,NNE,22,0.0,6.0,98,0.00,,,0.00,meteohub,2013-02-27 13:46:00,
2013-02-27 07:52:00,33.3,32.7,28.74,NNE,22,0.0,6.0,98,0.00,,,0.00,meteohub,2013-02-27 13:52:00,
2013-02-27 07:57:00,33.3,32.7,28.74,ENE,68,0.0,6.0,98,0.00,,,0.00,meteohub,2013-02-27 13:57:00,
2013-02-27 08:02:00,33.3,32.7,28.74,North,0,0.0,4.0,98,0.00,,,0.00,meteohub,2013-02-27 14:02:00,
2013-02-27 08:07:00,33.6,33.1,28.74,NNE,22,0.0,4.0,98,0.00,,,0.00,meteohub,2013-02-27 14:07:00,
2013-02-27 08:12:00,33.8,33.3,28.74,NNW,338,0.0,4.0,98,0.00,,,0.00,meteohub,2013-02-27 14:12:00,
2013-02-27 08:17:00,33.8,33.3,28.74,North,0,0.0,4.0,98,0.00,,,0.00,meteohub,2013-02-27 14:17:00,
2013-02-27 08:22:00,33.8,33.3,28.74,North,0,4.0,4.0,98,0.00,,,0.00,meteohub,2013-02-27 14:22:00,
2013-02-27 08:27:00,34.0,33.4,28.74,NNE,22,1.0,4.0,98,0.00,,,0.00,meteohub,2013-02-27 14:27:00,
2013-02-27 08:32:00,34.3,33.8,28.74,NNE,22,0.0,5.0,98,0.00,,,0.00,meteohub,2013-02-27 14:32:00,
2013-02-27 08:37:00,34.5,34.0,28.74,North,0,0.0,5.0,98,0.00,,,0.00,meteohub,2013-02-27 14:37:00,
2013-02-27 08:42:00,34.9,34.3,28.74,NNE,22,0.0,5.0,98,0.00,,,0.00,meteohub,2013-02-27 14:42:00,
2013-02-27 08:47:00,34.9,34.3,28.74,NNE,22,3.0,3.0,98,0.00,,,0.00,meteohub,2013-02-27 14:47:00,
2013-02-27 08:52:00,34.9,34.3,28.74,NNE,22,0.0,5.0,98,0.00,,,0.00,meteohub,2013-02-27 14:52:00,
2013-02-27 08:57:00,35.2,34.7,28.74,NNE,22,0.0,5.0,98,0.00,,,0.00,meteohub,2013-02-27 14:57:00,
2013-02-27 09:02:00,35.4,34.7,28.74,NE,45,0.0,5.0,97,0.00,,,0.00,meteohub,2013-02-27 15:02:00,
2013-02-27 09:07:00,35.4,34.2,28.74,NNE,22,0.0,4.0,95,0.00,,,0.00,meteohub,2013-02-27 15:07:00,
2013-02-27 09:12:00,35.6,34.0,28.74,North,0,0.0,4.0,94,0.00,,,0.00,meteohub,2013-02-27 15:12:00,
2013-02-27 09:17:00,35.6,33.3,28.74,ENE,68,0.0,4.0,91,0.00,,,0.00,meteohub,2013-02-27 15:17:00,
2013-02-27 09:22:00,35.8,32.9,28.74,NNE,22,0.0,4.0,89,0.00,,,0.00,meteohub,2013-02-27 15:22:00,
2013-02-27 09:27:00,35.6,32.7,28.74,NNE,22,0.0,4.0,89,0.00,,,0.00,meteohub,2013-02-27 15:27:00,
2013-02-27 09:32:00,35.6,32.2,28.74,NNE,22,3.0,3.0,87,0.00,,,0.00,meteohub,2013-02-27 15:32:00,
2013-02-27 09:37:00,35.2,31.8,28.74,NNE,22,0.0,4.0,87,0.00,,,0.00,meteohub,2013-02-27 15:37:00,
2013-02-27 09:42:00,35.4,31.6,28.74,NNE,22,0.0,4.0,86,0.00,,,0.00,meteohub,2013-02-27 15:42:00,
2013-02-27 09:47:00,35.6,31.8,28.74,NNE,22,0.0,4.0,86,0.00,,,0.00,meteohub,2013-02-27 15:47:00,
2013-02-27 09:52:00,35.4,31.5,28.74,ENE,68,4.0,4.0,85,0.00,,,0.00,meteohub,2013-02-27 15:52:00,
2013-02-27 09:57:00,35.4,31.5,28.74,NNE,22,0.0,6.0,85,0.00,,,0.00,meteohub,2013-02-27 15:57:00,
2013-02-27 10:03:00,35.6,31.3,28.74,North,0,0.0,6.0,84,0.00,,,0.00,meteohub,2013-02-27 16:03:00,
2013-02-27 10:08:00,35.6,31.3,28.74,NNE,22,0.0,6.0,84,0.00,,,0.00,meteohub,2013-02-27 16:08:00,
2013-02-27 10:13:00,35.6,30.9,28.74,NNE,22,0.0,4.0,83,0.00,,,0.00,meteohub,2013-02-27 16:13:00,
2013-02-27 10:18:00,35.6,30.9,28.74,ENE,68,2.0,6.0,83,0.00,,,0.00,meteohub,2013-02-27 16:18:00,
2013-02-27 10:23:00,35.8,30.9,28.74,North,0,0.0,6.0,82,0.00,,,0.00,meteohub,2013-02-27 16:23:00,
2013-02-27 10:28:00,36.0,30.7,28.74,NNE,22,0.0,7.0,81,0.00,,,0.00,meteohub,2013-02-27 16:28:00,
2013-02-27 10:33:00,36.0,30.4,28.74,NNE,22,0.0,7.0,80,0.00,,,0.00,meteohub,2013-02-27 16:33:00,
2013-02-27 10:38:00,36.0,30.4,28.74,NNW,338,0.0,7.0,80,0.00,,,0.00,meteohub,2013-02-27 16:38:00,
2013-02-27 10:43:00,36.0,30.0,28.71,NNE,22,0.0,6.0,79,0.00,,,0.00,meteohub,2013-02-27 16:43:00,
2013-02-27 10:48:00,35.8,29.8,28.71,NNE,22,0.0,6.0,79,0.00,,,0.00,meteohub,2013-02-27 16:48:00,
2013-02-27 10:53:00,35.8,29.8,28.71,North,0,6.0,6.0,79,0.00,,,0.00,meteohub,2013-02-27 16:53:00,
2013-02-27 10:58:00,35.8,29.8,28.71,NNE,22,4.0,6.0,79,0.00,,,0.00,meteohub,2013-02-27 16:58:00,
2013-02-27 11:03:00,35.8,29.8,28.71,ENE,68,0.0,6.0,79,0.00,,,0.00,meteohub,2013-02-27 17:03:00,
2013-02-27 11:08:00,35.8,30.2,28.71,North,0,2.0,6.0,80,0.00,,,0.00,meteohub,2013-02-27 17:08:00,
2013-02-27 11:13:00,35.8,29.8,28.71,NNE,22,7.0,7.0,79,0.00,,,0.00,meteohub,2013-02-27 17:13:00,
2013-02-27 11:18:00,35.8,29.8,28.71,East,90,1.0,7.0,79,0.00,,,0.00,meteohub,2013-02-27 17:18:00,
2013-02-27 11:23:00,36.0,30.0,28.74,East,90,3.0,7.0,79,0.00,,,0.00,meteohub,2013-02-27 17:23:00,
2013-02-27 11:28:00,36.1,30.6,28.74,North,0,0.0,7.0,80,0.00,,,0.00,meteohub,2013-02-27 17:28:00,
2013-02-27 11:33:00,36.0,30.0,28.74,North,0,3.0,5.0,79,0.00,,,0.00,meteohub,2013-02-27 17:33:00,
2013-02-27 11:38:00,35.8,29.8,28.74,North,0,0.0,4.0,79,0.00,,,0.00,meteohub,2013-02-27 17:38:00,
2013-02-27 11:43:00,35.6,30.0,28.74,North,0,3.0,6.0,80,0.00,,,0.00,meteohub,2013-02-27 17:43:00,
2013-02-27 11:48:00,35.4,30.2,28.74,NNE,22,0.0,6.0,81,0.00,,,0.00,meteohub,2013-02-27 17:48:00,
2013-02-27 11:53:00,35.4,30.6,28.74,ENE,68,0.0,4.0,82,0.00,,,0.00,meteohub,2013-02-27 17:53:00,
2013-02-27 11:58:00,35.4,30.7,28.74,NNE,22,4.0,4.0,83,0.00,,,0.00,meteohub,2013-02-27 17:58:00,
2013-02-27 12:03:00,35.2,30.6,28.74,NNE,22,3.0,4.0,83,0.00,,,0.00,meteohub,2013-02-27 18:03:00,
2013-02-27 12:08:00,35.2,30.6,28.74,ENE,68,0.0,4.0,83,0.00,,,0.00,meteohub,2013-02-27 18:08:00,
2013-02-27 12:13:00,35.2,30.6,28.74,North,0,1.0,6.0,83,0.00,,,0.00,meteohub,2013-02-27 18:13:00,
2013-02-27 12:18:00,35.1,30.4,28.74,NNW,338,1.0,7.0,83,0.00,,,0.00,meteohub,2013-02-27 18:18:00,
2013-02-27 12:23:00,35.1,30.4,28.71,North,0,6.0,8.0,83,0.00,,,0.00,meteohub,2013-02-27 18:23:00,
2013-02-27 12:28:00,35.1,30.4,28.71,NNE,22,4.0,8.0,83,0.00,,,0.00,meteohub,2013-02-27 18:28:00,
2013-02-27 12:33:00,35.1,30.4,28.71,NNE,22,1.0,8.0,83,0.00,,,0.00,meteohub,2013-02-27 18:33:00,
2013-02-27 12:38:00,35.1,30.4,28.74,NNE,22,0.0,6.0,83,0.00,,,0.00,meteohub,2013-02-27 18:38:00,
2013-02-27 12:43:00,34.9,30.2,28.74,NNE,22,0.0,6.0,83,0.00,,,0.00,meteohub,2013-02-27 18:43:00,
2013-02-27 12:48:00,34.7,30.4,28.74,East,90,0.0,6.0,84,0.00,,,0.00,meteohub,2013-02-27 18:48:00,
2013-02-27 12:53:00,34.5,30.2,28.71,NNE,22,4.0,5.0,84,0.00,,,0.00,meteohub,2013-02-27 18:53:00,
2013-02-27 12:58:00,34.3,30.0,28.71,NW,315,0.0,5.0,84,0.00,,,0.00,meteohub,2013-02-27 18:58:00,
2013-02-27 13:03:00,34.2,30.2,28.71,NE,45,0.0,5.0,85,0.00,,,0.00,meteohub,2013-02-27 19:03:00,
2013-02-27 13:08:00,34.0,30.0,28.74,ENE,68,0.0,5.0,85,0.00,,,0.00,meteohub,2013-02-27 19:08:00,
2013-02-27 13:13:00,34.0,30.2,28.74,NNW,338,0.0,5.0,86,0.00,,,0.00,meteohub,2013-02-27 19:13:00,
2013-02-27 13:18:00,33.8,30.0,28.74,NNW,338,0.0,4.0,86,0.00,,,0.00,meteohub,2013-02-27 19:18:00,
2013-02-27 13:23:00,34.0,30.2,28.74,NNE,22,0.0,4.0,86,0.00,,,0.00,meteohub,2013-02-27 19:23:00,
2013-02-27 13:28:00,33.8,30.4,28.74,NW,315,3.0,4.0,87,0.00,,,0.00,meteohub,2013-02-27 19:28:00,
2013-02-27 13:33:00,34.0,30.6,28.74,NE,45,0.0,6.0,87,0.00,,,0.00,meteohub,2013-02-27 19:33:00,
2013-02-27 13:38:00,34.0,30.6,28.74,ENE,68,0.0,6.0,87,0.00,,,0.00,meteohub,2013-02-27 19:38:00,
2013-02-27 13:43:00,33.8,30.6,28.74,NNE,22,0.0,6.0,88,0.00,,,0.00,meteohub,2013-02-27 19:43:00,
2013-02-27 13:49:00,33.8,30.6,28.74,NNE,22,0.0,6.0,88,0.00,,,0.00,meteohub,2013-02-27 19:49:00,
2013-02-27 13:54:00,33.8,30.6,28.74,NNE,22,0.0,6.0,88,0.00,,,0.00,meteohub,2013-02-27 19:54:00,
2013-02-27 13:59:00,33.8,30.6,28.74,NNE,22,0.0,0.0,88,0.00,,,0.00,meteohub,2013-02-27 19:59:00,
2013-02-27 14:04:00,33.8,30.6,28.74,NNE,22,0.0,1.0,88,0.00,,,0.00,meteohub,2013-02-27 20:04:00,
2013-02-27 14:09:00,33.6,30.7,28.74,NNW,338,0.0,5.0,89,0.00,,,0.00,meteohub,2013-02-27 20:09:00,
2013-02-27 14:14:00,33.6,30.7,28.74,North,0,0.0,5.0,89,0.00,,,0.00,meteohub,2013-02-27 20:14:00,
2013-02-27 14:19:00,33.6,30.7,28.74,NNE,22,0.0,5.0,89,0.00,,,0.00,meteohub,2013-02-27 20:19:00,
2013-02-27 14:24:00,33.6,30.7,28.74,NNW,338,0.0,3.0,89,0.00,,,0.00,meteohub,2013-02-27 20:24:00,
2013-02-27 14:29:00,33.6,30.7,28.74,ENE,68,0.0,3.0,89,0.00,,,0.00,meteohub,2013-02-27 20:29:00,
2013-02-27 14:34:00,33.6,30.7,28.74,NNW,338,0.0,3.0,89,0.00,,,0.00,meteohub,2013-02-27 20:34:00,
2013-02-27 14:39:00,33.4,30.6,28.74,NNE,22,0.0,1.0,89,0.00,,,0.00,meteohub,2013-02-27 20:39:00,
2013-02-27 14:44:00,33.4,30.6,28.74,North,-999,-999.0,4.0,89,0.00,,,0.00,meteohub,2013-02-27 20:44:00,
2013-02-27 14:49:00,33.4,30.6,28.74,North,0,1.0,4.0,89,0.00,,,0.00,meteohub,2013-02-27 20:49:00,
2013-02-27 14:54:00,33.3,30.7,28.74,NNE,22,0.0,4.0,90,0.00,,,0.00,meteohub,2013-02-27 20:54:00,
2013-02-27 14:59:00,33.3,30.7,28.74,NNW,338,0.0,4.0,90,0.00,,,0.00,meteohub,2013-02-27 20:59:00,
2013-02-27 15:04:00,33.3,30.7,28.74,NNW,338,0.0,4.0,90,0.00,,,0.00,meteohub,2013-02-27 21:04:00,
2013-02-27 15:09:00,33.3,30.7,28.74,NNE,22,0.0,5.0,90,0.00,,,0.00,meteohub,2013-02-27 21:09:00,
2013-02-27 15:14:00,33.1,30.7,28.74,NNE,22,0.0,5.0,91,0.00,,,0.00,meteohub,2013-02-27 21:14:00,
2013-02-27 15:19:00,33.1,30.7,28.74,NNE,22,0.0,4.0,91,0.00,,,0.00,meteohub,2013-02-27 21:19:00,
2013-02-27 15:24:00,33.1,30.7,28.74,NNW,338,0.0,4.0,91,0.00,,,0.00,meteohub,2013-02-27 21:24:00,
2013-02-27 15:29:00,33.3,31.3,28.74,NNE,22,0.0,4.0,92,0.00,,,0.00,meteohub,2013-02-27 21:29:00,
2013-02-27 15:34:00,33.1,31.1,28.74,North,0,0.0,4.0,92,0.00,,,0.00,meteohub,2013-02-27 21:34:00,
2013-02-27 15:39:00,33.1,31.1,28.74,WNW,292,0.0,3.0,92,0.00,,,0.00,meteohub,2013-02-27 21:39:00,
2013-02-27 15:44:00,33.1,31.1,28.74,NNE,22,0.0,2.0,92,0.00,,,0.00,meteohub,2013-02-27 21:44:00,
2013-02-27 15:49:00,33.1,31.1,28.74,ENE,68,4.0,4.0,92,0.00,,,0.00,meteohub,2013-02-27 21:49:00,
2013-02-27 15:54:00,33.1,31.3,28.77,NNE,22,0.0,4.0,93,0.00,,,0.00,meteohub,2013-02-27 21:54:00,
2013-02-27 15:59:00,33.1,31.3,28.77,ENE,68,0.0,5.0,93,0.00,,,0.00,meteohub,2013-02-27 21:59:00,
2013-02-27 16:04:00,33.1,31.3,28.77,NNE,22,4.0,5.0,93,0.00,,,0.00,meteohub,2013-02-27 22:04:00,
2013-02-27 16:09:00,33.1,31.3,28.77,ENE,68,0.0,5.0,93,0.00,,,0.00,meteohub,2013-02-27 22:09:00,
2013-02-27 16:14:00,32.9,31.3,28.77,NNE,22,0.0,6.0,94,0.00,,,0.00,meteohub,2013-02-27 22:14:00,
2013-02-27 16:19:00,32.9,31.3,28.77,NNW,338,2.0,6.0,94,0.00,,,0.00,meteohub,2013-02-27 22:19:00,
2013-02-27 16:24:00,32.7,31.1,28.77,NNE,22,1.0,5.0,94,0.00,,,0.00,meteohub,2013-02-27 22:24:00,
2013-02-27 16:29:00,32.7,31.1,28.77,North,0,0.0,5.0,94,0.00,,,0.00,meteohub,2013-02-27 22:29:00,
2013-02-27 16:35:00,32.7,31.1,28.77,NNE,22,4.0,6.0,94,0.00,,,0.00,meteohub,2013-02-27 22:35:00,
2013-02-27 16:40:00,32.7,31.5,28.77,North,0,1.0,6.0,95,0.00,,,0.00,meteohub,2013-02-27 22:40:00,
2013-02-27 16:45:00,32.7,31.5,28.77,NNW,338,0.0,6.0,95,0.00,,,0.00,meteohub,2013-02-27 22:45:00,
2013-02-27 16:50:00,32.5,31.3,28.77,NNW,338,0.0,4.0,95,0.00,,,0.00,meteohub,2013-02-27 22:50:00,
2013-02-27 16:55:00,32.5,31.3,28.77,North,0,1.0,4.0,95,0.00,,,0.00,meteohub,2013-02-27 22:55:00,
2013-02-27 17:00:00,32.5,31.5,28.77,NNE,22,6.0,6.0,96,0.00,,,0.00,meteohub,2013-02-27 23:00:00,
2013-02-27 17:05:00,32.5,31.5,28.77,NNE,22,0.0,6.0,96,0.00,,,0.00,meteohub,2013-02-27 23:05:00,
2013-02-27 17:10:00,32.5,31.5,28.77,NNE,22,1.0,6.0,96,0.00,,,0.00,meteohub,2013-02-27 23:10:00,
2013-02-27 17:15:00,32.5,31.5,28.77,NNE,22,3.0,6.0,96,0.00,,,0.00,meteohub,2013-02-27 23:15:00,
2013-02-27 17:20:00,32.5,31.8,28.77,East,90,4.0,4.0,97,0.00,,,0.00,meteohub,2013-02-27 23:20:00,
2013-02-27 17:25:00,32.4,31.6,28.80,North,0,2.0,6.0,97,0.00,,,0.00,meteohub,2013-02-27 23:25:00,
2013-02-27 17:30:00,32.4,31.6,28.80,ENE,68,3.0,6.0,97,0.00,,,0.00,meteohub,2013-02-27 23:30:00,
2013-02-27 17:35:00,32.4,31.6,28.80,NNE,22,0.0,6.0,97,0.00,,,0.00,meteohub,2013-02-27 23:35:00,
2013-02-27 17:40:00,32.4,31.8,28.80,NNE,22,0.0,6.0,98,0.00,,,0.00,meteohub,2013-02-27 23:40:00,
2013-02-27 17:45:00,32.4,31.8,28.80,NNE,22,3.0,6.0,98,0.00,,,0.00,meteohub,2013-02-27 23:45:00,
2013-02-27 17:50:00,32.4,31.8,28.80,NE,45,1.0,6.0,98,0.00,,,0.00,meteohub,2013-02-27 23:50:00,
2013-02-27 17:55:00,32.4,31.8,28.80,NNE,22,1.0,4.0,98,0.00,,,0.00,meteohub,2013-02-27 23:55:00,
2013-02-27 18:00:00,32.4,31.8,28.80,NNE,22,0.0,4.0,98,0.00,,,0.00,meteohub,2013-02-28 00:00:00,
2013-02-27 18:05:00,32.4,31.8,28.80,NE,45,4.0,4.0,98,0.00,,,0.00,meteohub,2013-02-28 00:05:00,
2013-02-27 18:10:00,32.4,31.8,28.80,NNE,22,2.0,4.0,98,0.00,,,0.00,meteohub,2013-02-28 00:10:00,
2013-02-27 18:15:00,32.4,31.8,28.80,ENE,68,3.0,4.0,98,0.00,,,0.00,meteohub,2013-02-28 00:15:00,
2013-02-27 18:20:00,32.4,31.8,28.80,East,90,0.0,4.0,98,0.00,,,0.00,meteohub,2013-02-28 00:20:00,
2013-02-27 18:25:00,32.4,31.8,28.83,ENE,68,1.0,4.0,98,0.00,,,0.00,meteohub,2013-02-28 00:25:00,
2013-02-27 18:30:00,32.4,31.8,28.83,NNW,338,1.0,4.0,98,0.00,,,0.00,meteohub,2013-02-28 00:30:00,
2013-02-27 18:35:00,32.4,31.8,28.83,ENE,68,0.0,4.0,98,0.00,,,0.00,meteohub,2013-02-28 00:35:00,
2013-02-27 18:40:00,32.4,31.8,28.80,NNE,22,0.0,4.0,98,0.00,,,0.00,meteohub,2013-02-28 00:40:00,
2013-02-27 18:45:00,32.4,31.8,28.80,NE,45,2.0,4.0,98,0.00,,,0.00,meteohub,2013-02-28 00:45:00,
2013-02-27 18:50:00,32.4,31.8,28.80,ENE,68,0.0,4.0,98,0.00,,,0.00,meteohub,2013-02-28 00:50:00,
2013-02-27 18:55:00,32.4,31.8,28.83,ENE,68,0.0,4.0,98,0.00,,,0.00,meteohub,2013-02-28 00:55:00,
2013-02-27 19:00:00,32.4,31.8,28.83,NNE,22,2.0,3.0,98,0.00,,,0.00,meteohub,2013-02-28 01:00:00,
2013-02-27 19:05:00,32.4,31.8,28.83,NNE,22,0.0,2.0,98,0.00,,,0.00,meteohub,2013-02-28 01:05:00,
2013-02-27 19:10:00,32.4,31.8,28.80,NNE,22,0.0,2.0,98,0.00,,,0.00,meteohub,2013-02-28 01:10:00,
2013-02-27 19:15:00,32.4,31.8,28.80,ENE,68,0.0,2.0,98,0.00,,,0.00,meteohub,2013-02-28 01:15:00,
2013-02-27 19:20:00,32.4,31.8,28.80,NE,45,0.0,2.0,98,0.00,,,0.00,meteohub,2013-02-28 01:20:00,
2013-02-27 19:25:00,32.4,31.8,28.83,NNE,22,3.0,3.0,98,0.00,,,0.00,meteohub,2013-02-28 01:25:00,
2013-02-27 19:30:00,32.4,31.8,28.83,NNE,22,0.0,3.0,98,0.00,,,0.00,meteohub,2013-02-28 01:30:00,
2013-02-27 19:35:00,32.4,31.8,28.83,NNE,22,4.0,4.0,98,0.00,,,0.00,meteohub,2013-02-28 01:35:00,
2013-02-27 19:40:00,32.4,31.8,28.83,NE,45,0.0,5.0,98,0.00,,,0.00,meteohub,2013-02-28 01:40:00,
2013-02-27 19:45:00,32.4,31.8,28.83,NNE,22,2.0,5.0,98,0.00,,,0.00,meteohub,2013-02-28 01:45:00,
2013-02-27 19:50:00,32.4,31.8,28.83,NE,45,2.0,5.0,98,0.00,,,0.00,meteohub,2013-02-28 01:50:00,
2013-02-27 19:55:00,32.5,32.0,28.83,NNE,22,4.0,6.0,98,0.00,,,0.00,meteohub,2013-02-28 01:55:00,
2013-02-27 20:00:00,32.5,32.0,28.83,ENE,68,8.0,8.0,98,0.00,,,0.00,meteohub,2013-02-28 02:00:00,
2013-02-27 20:05:00,32.4,31.8,28.83,ENE,68,4.0,9.0,98,0.00,,,0.00,meteohub,2013-02-28 02:05:00,
2013-02-27 20:10:00,32.4,31.8,28.83,NNE,22,0.0,9.0,98,0.00,,,0.00,meteohub,2013-02-28 02:10:00,
2013-02-27 20:15:00,32.4,31.8,28.83,ENE,68,5.0,8.0,98,0.00,,,0.00,meteohub,2013-02-28 02:15:00,
2013-02-27 20:20:00,32.5,32.0,28.83,ENE,68,0.0,6.0,98,0.00,,,0.00,meteohub,2013-02-28 02:20:00,
2013-02-27 20:25:00,32.4,31.8,28.83,ENE,68,0.0,6.0,98,0.00,,,0.00,meteohub,2013-02-28 02:25:00,
2013-02-27 20:30:00,32.4,31.8,28.83,NE,45,6.0,6.0,98,0.00,,,0.00,meteohub,2013-02-28 02:30:00,
2013-02-27 20:35:00,32.4,31.8,28.83,NNE,22,0.0,6.0,98,0.00,,,0.00,meteohub,2013-02-28 02:35:00,
2013-02-27 20:40:00,32.4,31.8,28.83,ENE,68,6.0,6.0,98,0.00,,,0.00,meteohub,2013-02-28 02:40:00,
2013-02-27 20:45:00,32.4,31.8,28.83,NNE,22,3.0,6.0,98,0.00,,,0.00,meteohub,2013-02-28 02:45:00,
2013-02-27 20:50:00,32.4,31.8,28.83,ENE,68,2.0,6.0,98,0.00,,,0.00,meteohub,2013-02-28 02:50:00,
2013-02-27 20:55:00,32.4,31.8,28.83,East,90,3.0,6.0,98,0.00,,,0.00,meteohub,2013-02-28 02:55:00,
2013-02-27 21:00:00,32.4,31.8,28.83,NE,45,2.0,6.0,98,0.00,,,0.00,meteohub,2013-02-28 03:00:00,
2013-02-27 21:05:00,32.4,31.8,28.83,ENE,68,4.0,6.0,98,0.00,,,0.00,meteohub,2013-02-28 03:05:00,
2013-02-27 21:10:00,32.4,31.8,28.83,NNE,22,0.0,6.0,98,0.00,,,0.00,meteohub,2013-02-28 03:10:00,
2013-02-27 21:15:00,32.5,32.0,28.83,ENE,68,4.0,6.0,98,0.00,,,0.00,meteohub,2013-02-28 03:15:00,
2013-02-27 21:20:00,32.5,32.0,28.83,NE,45,3.0,6.0,98,0.00,,,0.00,meteohub,2013-02-28 03:20:00,
2013-02-27 21:25:00,32.4,31.8,28.83,NNE,22,0.0,9.0,98,0.00,,,0.00,meteohub,2013-02-28 03:25:00,
2013-02-27 21:31:00,32.5,32.0,28.83,NNE,22,1.0,9.0,98,0.00,,,0.00,meteohub,2013-02-28 03:31:00,
2013-02-27 21:36:00,32.5,32.0,28.83,NNE,22,0.0,7.0,98,0.00,,,0.00,meteohub,2013-02-28 03:36:00,
2013-02-27 21:41:00,32.5,32.0,28.83,ENE,68,4.0,7.0,98,0.00,,,0.00,meteohub,2013-02-28 03:41:00,
2013-02-27 21:46:00,32.5,32.0,28.83,East,90,3.0,7.0,98,0.00,,,0.00,meteohub,2013-02-28 03:46:00,
2013-02-27 21:51:00,32.5,32.0,28.83,NNE,22,5.0,7.0,98,0.00,,,0.00,meteohub,2013-02-28 03:51:00,
2013-02-27 21:56:00,32.5,32.0,28.83,ENE,68,4.0,7.0,98,0.00,,,0.00,meteohub,2013-02-28 03:56:00,
2013-02-27 22:01:00,32.5,32.0,28.83,East,90,3.0,5.0,98,0.00,,,0.00,meteohub,2013-02-28 04:01:00,
2013-02-27 22:06:00,32.5,32.0,28.83,ENE,68,4.0,6.0,98,0.00,,,0.00,meteohub,2013-02-28 04:06:00,
2013-02-27 22:11:00,32.5,32.0,28.83,East,90,3.0,6.0,98,0.00,,,0.00,meteohub,2013-02-28 04:11:00,
2013-02-27 22:16:00,32.5,32.0,28.83,North,0,3.0,6.0,98,0.00,,,0.00,meteohub,2013-02-28 04:16:00,
2013-02-27 22:21:00,32.5,32.0,28.83,NNE,22,4.0,6.0,98,0.00,,,0.00,meteohub,2013-02-28 04:21:00,
2013-02-27 22:26:00,32.5,32.0,28.83,ENE,68,2.0,8.0,98,0.00,,,0.00,meteohub,2013-02-28 04:26:00,
2013-02-27 22:31:00,32.5,32.0,28.83,ENE,68,4.0,8.0,98,0.00,,,0.00,meteohub,2013-02-28 04:31:00,
2013-02-27 22:36:00,32.5,32.0,28.83,East,90,3.0,8.0,98,0.00,,,0.00,meteohub,2013-02-28 04:36:00,
2013-02-27 22:41:00,32.5,32.0,28.83,ENE,68,6.0,8.0,98,0.00,,,0.00,meteohub,2013-02-28 04:41:00,
2013-02-27 22:46:00,32.5,32.0,28.83,NNE,22,3.0,9.0,98,0.00,,,0.00,meteohub,2013-02-28 04:46:00,
2013-02-27 22:51:00,32.5,32.0,28.83,ENE,68,5.0,9.0,98,0.00,,,0.00,meteohub,2013-02-28 04:51:00,
2013-02-27 22:56:00,32.5,32.0,28.83,ENE,68,3.0,10.0,98,0.00,,,0.00,meteohub,2013-02-28 04:56:00,
2013-02-27 23:00:00,32.5,32.0,28.83,ENE,68,4.0,10.0,98,0.00,,,0.00,meteohub,2013-02-28 05:00:00,
2013-02-27 23:05:00,32.5,32.0,28.83,NNE,22,6.0,10.0,98,0.00,,,0.00,meteohub,2013-02-28 05:05:00,
2013-02-27 23:10:00,32.5,32.0,28.83,ENE,68,3.0,9.0,98,0.00,,,0.00,meteohub,2013-02-28 05:10:00,
2013-02-27 23:15:00,32.4,31.8,28.83,ENE,68,4.0,8.0,98,0.00,,,0.00,meteohub,2013-02-28 05:15:00,
2013-02-27 23:20:00,32.4,31.8,28.83,NNE,22,3.0,9.0,98,0.00,,,0.00,meteohub,2013-02-28 05:20:00,
2013-02-27 23:25:00,32.4,31.8,28.83,East,90,5.0,9.0,98,0.00,,,0.00,meteohub,2013-02-28 05:25:00,
2013-02-27 23:30:00,32.4,31.8,28.83,East,90,5.0,11.0,98,0.00,,,0.00,meteohub,2013-02-28 05:30:00,
2013-02-27 23:35:00,32.4,31.8,28.83,NNE,22,4.0,11.0,98,0.00,,,0.00,meteohub,2013-02-28 05:35:00,
2013-02-27 23:40:00,32.4,31.8,28.86,ENE,68,3.0,11.0,98,0.00,,,0.00,meteohub,2013-02-28 05:40:00,
2013-02-27 23:45:00,32.4,31.8,28.86,NNE,22,5.0,10.0,98,0.00,,,0.00,meteohub,2013-02-28 05:45:00,
2013-02-27 23:50:00,32.4,31.8,28.86,East,90,8.0,10.0,98,0.00,,,0.00,meteohub,2013-02-28 05:50:00,
2013-02-27 23:55:00,32.4,31.8,28.83,ENE,68,6.0,11.0,98,0.00,,,0.00,meteohub,2013-02-28 05:55:00,